Regional Weather Roundup
Issued by NWS Kansas City/Pleasant Hill, MO

Home | Current Version | Previous Version | Graphics & Text | Print | Product List | Glossary Off
Versions: 1 2 3 4 5 6 7 8 9 10 11 12 13 14 15 16 17 18 19 20 21 22 23 24 25 26 27 28 29 30 31 32 33 34 35 36 37 38 39 40 41 42 43 44 45 46 47 48 49 50

000
ASUS43 KEAX 202204
RWREAX

WEATHER ROUNDUP FOR EASTERN KANSAS AND NORTHWEST MISSOURI
NATIONAL WEATHER SERVICE KANSAS CITY/PLEASANT HILL MO
500 PM CDT SAT SEP 20 2014

KSZ040-057-103>105-MOZ028-029-037-043-202300-
...KANSAS CITY METROPOLITAN AREA...

CITY           SKY/WX    TMP DP  RH WIND       PRES   REMARKS
K.C. INTL      CLOUDY    78  72  81 S8        29.93F
K.C. DOWNTOWN  CLOUDY    83  70  64 SW6       29.92S
LEES SUMMIT    CLOUDY    80  70  71 SW8       29.95R
OLATHE - IXD   CLOUDY    80  69  69 S7        29.95S
OLATHE - OJC   CLOUDY    79  70  74 SW6       29.95R
LAWRENCE       CLOUDY    79  69  71 SW6       29.92F

$$

MOZ001>008-011>017-020>025-030>033-038>040-044>046-053-054-202300-
...NORTHERN AND CENTRAL MISSOURI...

CITY           SKY/WX    TMP DP  RH WIND       PRES   REMARKS
ST. JOSEPH     MOSUNNY   84  69  60 W10G17    29.91S
MOSBY          CLOUDY    82  70  65 SW6       29.92S
WHITEMAN AFB   CLOUDY    80  72  76 SW10      29.94F
CLINTON        CLOUDY    81  73  78 SW6       29.96F
SEDALIA        CLOUDY    82  70  66 SW7       29.96R
WARSAW         NOT AVBL
MARSHALL       PTSUNNY   84  73  70 SW8       29.94S HX  91
CHILLICOTHE      N/A     83  72  69 CALM      29.91F
MOBERLY        MOSUNNY   86  66  51 SW13      29.92F
KIRKSVILLE     SUNNY     80  71  74 W6        29.91F

$$

MOZ041-047>049-056>058-063>065-088>090-097-202300-
...EASTERN AND SOUTHERN MISSOURI...

CITY           SKY/WX    TMP DP  RH WIND       PRES   REMARKS
ST. LOUIS INTL PTSUNNY   87  68  52 W9        29.92F HX  90
SPIRIT OF STL  PTSUNNY   85  67  54 SW7       29.90F
COLUMBIA       PTSUNNY   82  69  64 W12       29.95R
JEFFERSON CITY PTSUNNY   84  67  56 SW12G17   29.93R
MEXICO         PTSUNNY   84  72  65 SW10      29.93R
ROLLA          MOSUNNY   82  65  56 SW12      29.95F
LEBANON        MOSUNNY   84  64  51 W8        29.99R
OSAGE BEACH    MOSUNNY   82  66  57 W6        29.97R
SPRINGFIELD    MOSUNNY   82  68  62 SW8       29.98S
BRANSON        MOSUNNY   86  66  51 W10       29.99F
NEVADA         MOSUNNY   84  70  61 SW6       29.98R
JOPLIN         MOSUNNY   83  70  64 SW14      29.98S
WEST PLAINS    MOSUNNY   83  67  58 SW7       30.00F

$$

IAZ060-094-KSZ022-034>040-054-083-096-NEZ052-066-093-202300-
...KANSAS...SOUTHEAST NEBRASKA AND IOWA...

CITY           SKY/WX    TMP DP  RH WIND       PRES   REMARKS
TOPEKA         LGT RAIN  75  73  93 CALM      29.95R
MANHATTAN      CLOUDY    77  70  79 E15       29.93R
EMPORIA        MOSUNNY   88  66  48 SW10G20   29.94R HX  90
CHANUTE        SUNNY     84  70  62 SW15G26   29.95F
WICHITA        MOSUNNY   93  58  30 W10       29.94F HX  92
OMAHA          MOSUNNY   84  57  39 NW10      29.91S
LINCOLN        SUNNY     86  56  35 N15       29.95S
FALLS CITY     SUNNY     83  70  64 W9        29.91S
LAMONI         PTSUNNY   81  68  64 W10       29.90S
DES MOINES     MOSUNNY   85  62  46 W14       29.85S

$$




USA.gov is the U.S. government's official web portal to all federal, state and local government web resources and services.